Location: Unspecified
(35.6961°N, 0.0000°E)
Time: 00:59:10
(UTC+00:00)

S-56A Canister/Altair - Pass Details

Date: 04 June 2019
Orbit: 633 x 2499 km, 38.9° (Epoch: 25 June)

Event Time Altitude Azimuth Distance (km) Brightness Sun altitude
Rises 21:17:29 0° 242° (WSW) 3,032 10.7 -20.5°
Reaches altitude 10° 21:19:54 10° 239° (WSW) 2,040 9.8 -20.8°
Maximum altitude 21:24:19 66° 157° (SSE) 690 7.0 -21.4°
Enters shadow 21:25:08 53° 104° (ESE) 780 7.2 -21.5°
Drops below altitude 10° 21:28:58 10° 75° (ENE) 2,139 - -21.9°
Sets 21:31:33 0° 73° (ENE) 3,195 - -22.2°
